Location: Bagnara
(41.0500°N, 14.7833°E)
Time: 08:27:24
(UTC+00:00)

YAOGAN 11 - Pass Details

Date: 20 June 2021
Orbit: 613 x 668 km, 98.3° (Epoch: 01 August)

Event Time Altitude Azimuth Distance (km) Brightness Sun altitude
Exits shadow 00:35:34 46° 261° (W) 861 4.5 -22.0°
Drops below altitude 10° 00:39:53 10° 335° (NNW) 2,062 7.3 -21.7°
Sets 00:42:13 0° 341° (NNW) 2,986 8.3 -21.5°
